owner,sensor,date,latitude,longitude,vertical_datum,wind_speed,wind_to_direction,wind_speed_of_gust,qcFlag 
TABS,ioos:station:wmo:42045:1,2015-11-01T00:00:00Z,26.2168,-96.4998,4.0,4.873951169,331.1736127,8.02,'11111222,11111222,11111222' 
TABS,ioos:station:wmo:42045:1,2015-11-01T00:30:00Z,26.2168,-96.4998,4.0,4.766182959,335.5857386,8.24,'11111222,11111222,11111222' 
TABS,ioos:station:wmo:42045:1,2015-11-01T01:00:00Z,26.2168,-96.4998,4.0,5.570008977,318.7849306,10.73,'11111222,11111222,11111222' 
TABS,ioos:station:wmo:42045:1,2015-11-01T01:30:00Z,26.2168,-96.4998,4.0,5.339850185,311.8116549,10.0,'11111222,11111222,11111222' 
TABS,ioos:station:wmo:42045:1,2015-11-01T02:00:00Z,26.2168,-96.4998,4.0,4.605659562,335.7721009,10.61,'11111222,11111222,11111222' 
TABS,ioos:station:wmo:42045:1,2015-11-01T02:30:00Z,26.2168,-96.4998,4.0,3.451173713,335.8856474,7.86,'11111222,11111222,11111222' 
TABS,ioos:station:wmo:42045:1,2015-11-01T03:00:00Z,26.2168,-96.4998,4.0,3.407007485,343.1072908,9.17,'11111222,11111222,11111222' 
TABS,ioos:station:wmo:42045:1,2015-11-01T03:30:00Z,26.2168,-96.4998,4.0,3.4006617,13.25957321,8.95,'11111222,11111222,11111222' 
TABS,ioos:station:wmo:42045:1,2015-11-01T04:00:00Z,26.2168,-96.4998,4.0,3.911035668,1.318382301,8.17,'11111222,11111222,11111222' 
TABS,ioos:station:wmo:42045:1,2015-11-01T04:30:00Z,26.2168,-96.4998,4.0,4.145093485,346.4664535,8.93,'11111222,11111222,11111222' 
TABS,ioos:station:wmo:42045:1,2015-11-01T05:00:00Z,26.2168,-96.4998,4.0,4.39414383,312.8788033,8.33,'11111222,11111222,11111222' 
TABS,ioos:station:wmo:42045:1,2015-11-01T05:30:00Z,26.2168,-96.4998,4.0,5.089056887,301.9098356,9.58,'11111222,11111222,11111222' 
TABS,ioos:station:wmo:42045:1,2015-11-01T06:00:00Z,26.2168,-96.4998,4.0,5.745963801,288.7817656,9.92,'11111222,11111222,11111222' 
TABS,ioos:station:wmo:42045:1,2015-11-01T06:30:00Z,26.2168,-96.4998,4.0,5.903329569,292.0897267,10.08,'11111222,11111222,11111222' 
TABS,ioos:station:wmo:42045:1,2015-11-01T07:00:00Z,26.2168,-96.4998,4.0,5.398008892,304.6615073,9.82,'11111222,11111222,11111222' 
TABS,ioos:station:wmo:42045:1,2015-11-01T07:30:00Z,26.2168,-96.4998,4.0,6.551900488,301.7735686,10.25,'11111222,11111222,11111222' 
TABS,ioos:station:wmo:42045:1,2015-11-01T08:00:00Z,26.2168,-96.4998,4.0,5.85918083,334.3094752,9.42,'11111222,11111222,11111222' 
TABS,ioos:station:wmo:42045:1,2015-11-01T08:30:00Z,26.2168,-96.4998,4.0,6.695729983,300.3179614,10.5,'11111222,11111222,11111222' 
TABS,ioos:station:wmo:42045:1,2015-11-01T09:00:00Z,26.2168,-96.4998,4.0,7.262079592,301.8296837,10.49,'11111222,11111222,11111222' 
TABS,ioos:station:wmo:42045:1,2015-11-01T09:30:00Z,26.2168,-96.4998,4.0,6.873310702,314.5283363,9.53,'11111222,11111222,11111222' 
TABS,ioos:station:wmo:42045:1,2015-11-01T10:00:00Z,26.2168,-96.4998,4.0,6.001008249,358.949487,8.8,'11111222,11111222,11111222' 
TABS,ioos:station:wmo:42045:1,2015-11-01T10:30:00Z,26.2168,-96.4998,4.0,5.778321556,356.9244707,7.79,'11111222,11111222,11111222' 
TABS,ioos:station:wmo:42045:1,2015-11-01T11:00:00Z,26.2168,-96.4998,4.0,4.890010225,337.2628086,6.37,'11111222,11111222,11111222' 
TABS,ioos:station:wmo:42045:1,2015-11-01T11:30:00Z,26.2168,-96.4998,4.0,6.142352969,321.5440218,7.73,'11111222,11111222,11111222' 
TABS,ioos:station:wmo:42045:1,2015-11-01T12:00:00Z,26.2168,-96.4998,4.0,6.337925528,325.6077449,8.4,'11111222,11111222,11111222' 
TABS,ioos:station:wmo:42045:1,2015-11-01T12:30:00Z,26.2168,-96.4998,4.0,6.656763478,320.5469635,9.04,'11111222,11111222,11111222' 
TABS,ioos:station:wmo:42045:1,2015-11-01T13:00:00Z,26.2168,-96.4998,4.0,6.66528319,317.0669932,8.52,'11111222,11111222,11111222' 
TABS,ioos:station:wmo:42045:1,2015-11-01T13:30:00Z,26.2168,-96.4998,4.0,6.270390737,310.4723566,8.1,'11111222,11111222,11111222' 
TABS,ioos:station:wmo:42045:1,2015-11-01T14:00:00Z,26.2168,-96.4998,4.0,6.084118671,306.5119537,7.36,'11111222,11111222,11111222' 
TABS,ioos:station:wmo:42045:1,2015-11-01T14:30:00Z,26.2168,-96.4998,4.0,6.315322636,303.4383626,8.22,'11111222,11111222,11111222' 
TABS,ioos:station:wmo:42045:1,2015-11-01T15:00:00Z,26.2168,-96.4998,4.0,6.728870633,304.2804011,8.28,'11111222,11111222,11111222' 
TABS,ioos:station:wmo:42045:1,2015-11-01T15:30:00Z,26.2168,-96.4998,4.0,6.335905618,302.5612801,8.13,'11111222,11111222,11111222' 
TABS,ioos:station:wmo:42045:1,2015-11-01T16:00:00Z,26.2168,-96.4998,4.0,7.022819946,289.9830598,8.45,'11111222,11111222,11111222' 
TABS,ioos:station:wmo:42045:1,2015-11-01T16:30:00Z,26.2168,-96.4998,4.0,6.3214318,304.4944381,7.85,'11111222,11111222,11111222' 
TABS,ioos:station:wmo:42045:1,2015-11-01T17:00:00Z,26.2168,-96.4998,4.0,6.140032573,307.0564415,7.6,'11111222,11111222,11111222' 
TABS,ioos:station:wmo:42045:1,2015-11-01T17:30:00Z,26.2168,-96.4998,4.0,5.960075503,300.2217676,7.86,'11111222,11111222,11111222' 
TABS,ioos:station:wmo:42045:1,2015-11-01T18:00:00Z,26.2168,-96.4998,4.0,5.588067645,305.3111309,6.92,'11111222,11111222,11111222' 
TABS,ioos:station:wmo:42045:1,2015-11-01T18:30:00Z,26.2168,-96.4998,4.0,5.248818915,304.9919384,6.47,'11111222,11111222,11111222' 
TABS,ioos:station:wmo:42045:1,2015-11-01T19:00:00Z,26.2168,-96.4998,4.0,5.211237857,297.7943207,6.39,'11111222,11111222,11111222' 
TABS,ioos:station:wmo:42045:1,2015-11-01T19:30:00Z,26.2168,-96.4998,4.0,5.073006998,303.0948121,6.34,'11111222,11111222,11111222' 
TABS,ioos:station:wmo:42045:1,2015-11-01T20:00:00Z,26.2168,-96.4998,4.0,4.620584379,301.7292819,5.94,'11111222,11111222,11111222' 
TABS,ioos:station:wmo:42045:1,2015-11-01T20:30:00Z,26.2168,-96.4998,4.0,5.472120247,303.7480684,7.39,'11111222,11111222,11111222' 
TABS,ioos:station:wmo:42045:1,2015-11-01T21:00:00Z,26.2168,-96.4998,4.0,5.57483632,304.0320482,6.98,'11111222,11111222,11111222' 
TABS,ioos:station:wmo:42045:1,2015-11-01T21:30:00Z,26.2168,-96.4998,4.0,5.303630832,302.7611135,6.44,'11111222,11111222,11111222' 
TABS,ioos:station:wmo:42045:1,2015-11-01T22:00:00Z,26.2168,-96.4998,4.0,5.638625719,307.7233904,7.31,'11111222,11111222,11111222' 
TABS,ioos:station:wmo:42045:1,2015-11-01T22:30:00Z,26.2168,-96.4998,4.0,5.455171858,321.1760422,6.65,'11111222,11111222,11111222' 
TABS,ioos:station:wmo:42045:1,2015-11-01T23:00:00Z,26.2168,-96.4998,4.0,4.918587196,324.0153223,6.05,'11111222,11111222,11111222' 
TABS,ioos:station:wmo:42045:1,2015-11-01T23:30:00Z,26.2168,-96.4998,4.0,4.29222553,323.7173314,5.55,'11111222,11111222,11111222' 
TABS,ioos:station:wmo:42045:1,2015-11-02T00:00:00Z,26.2168,-96.4998,4.0,3.996623575,326.4290837,5.08,'11111222,11111222,11111222' 
TABS,ioos:station:wmo:42045:1,2015-11-02T00:30:00Z,26.2168,-96.4998,4.0,4.123117752,321.7958229,5.07,'11111222,11111222,11111222' 
TABS,ioos:station:wmo:42045:1,2015-11-02T01:00:00Z,26.2168,-96.4998,4.0,3.91065212,321.019732,4.7,'11111222,11111222,11111222' 
TABS,ioos:station:wmo:42045:1,2015-11-02T01:30:00Z,26.2168,-96.4998,4.0,4.12287521,319.8206496,5.1,'11111222,11111222,11111222' 
TABS,ioos:station:wmo:42045:1,2015-11-02T02:00:00Z,26.2168,-96.4998,4.0,4.567997373,315.354662,5.49,'11111222,11111222,11111222' 
TABS,ioos:station:wmo:42045:1,2015-11-02T02:30:00Z,26.2168,-96.4998,4.0,4.285907139,316.1343137,5.09,'11111222,11111222,11111222' 
TABS,ioos:station:wmo:42045:1,2015-11-02T03:00:00Z,26.2168,-96.4998,4.0,4.250188231,315.8578353,5.05,'11111222,11111222,11111222' 
TABS,ioos:station:wmo:42045:1,2015-11-02T03:30:00Z,26.2168,-96.4998,4.0,3.708004854,306.7771001,4.52,'11111222,11111222,11111222' 
TABS,ioos:station:wmo:42045:1,2015-11-02T04:00:00Z,26.2168,-96.4998,4.0,3.34005988,307.212895,4.44,'11111222,11111222,11111222' 
TABS,ioos:station:wmo:42045:1,2015-11-02T04:30:00Z,26.2168,-96.4998,4.0,3.137036818,303.0314471,4.04,'11111222,11111222,11111222' 
TABS,ioos:station:wmo:42045:1,2015-11-02T05:00:00Z,26.2168,-96.4998,4.0,2.733861738,318.2619206,3.52,'11111222,11111222,11111222' 
TABS,ioos:station:wmo:42045:1,2015-11-02T05:30:00Z,26.2168,-96.4998,4.0,3.013171087,305.272339,3.88,'11111222,11111222,11111222' 
TABS,ioos:station:wmo:42045:1,2015-11-02T06:00:00Z,26.2168,-96.4998,4.0,2.831289459,297.5605478,3.95,'11111222,11111222,11111222' 
TABS,ioos:station:wmo:42045:1,2015-11-02T06:30:00Z,26.2168,-96.4998,4.0,2.901103238,303.470886,4.06,'11111222,11111222,11111222' 
TABS,ioos:station:wmo:42045:1,2015-11-02T07:00:00Z,26.2168,-96.4998,4.0,2.554544969,304.3120669,3.69,'11111222,11111222,11111222' 
TABS,ioos:station:wmo:42045:1,2015-11-02T07:30:00Z,26.2168,-96.4998,4.0,2.758785965,293.4985107,3.73,'11111222,11111222,11111222' 
TABS,ioos:station:wmo:42045:1,2015-11-02T08:00:00Z,26.2168,-96.4998,4.0,2.073861133,299.7790795,3.03,'11111222,11111222,11111222' 
TABS,ioos:station:wmo:42045:1,2015-11-02T08:30:00Z,26.2168,-96.4998,4.0,2.064000969,306.9253304,2.91,'11111222,11111222,11111222' 
TABS,ioos:station:wmo:42045:1,2015-11-02T09:00:00Z,26.2168,-96.4998,4.0,2.239732127,280.8082057,3.37,'11111222,11111222,11111222' 
TABS,ioos:station:wmo:42045:1,2015-11-02T09:30:00Z,26.2168,-96.4998,4.0,2.620477056,271.0932956,3.23,'11111222,11111222,11111222' 
TABS,ioos:station:wmo:42045:1,2015-11-02T10:00:00Z,26.2168,-96.4998,4.0,2.831324778,278.5307457,4.19,'11111222,11111222,11111222' 
TABS,ioos:station:wmo:42045:1,2015-11-02T10:30:00Z,26.2168,-96.4998,4.0,2.546566316,276.5389468,3.7,'11111222,11111222,11111222' 
TABS,ioos:station:wmo:42045:1,2015-11-02T11:00:00Z,26.2168,-96.4998,4.0,2.495796466,273.90569,3.51,'11111222,11111222,11111222' 
TABS,ioos:station:wmo:42045:1,2015-11-02T11:30:00Z,26.2168,-96.4998,4.0,2.607834351,261.6213471,3.83,'11111222,11111222,11111222' 
TABS,ioos:station:wmo:42045:1,2015-11-02T12:00:00Z,26.2168,-96.4998,4.0,2.660864521,283.2528186,3.5,'11111222,11111222,11111222' 
TABS,ioos:station:wmo:42045:1,2015-11-02T12:30:00Z,26.2168,-96.4998,4.0,3.064245421,291.0374618,4.2,'11111222,11111222,11111222' 
TABS,ioos:station:wmo:42045:1,2015-11-02T13:00:00Z,26.2168,-96.4998,4.0,3.361681127,274.7777846,4.52,'11111222,11111222,11111222' 
TABS,ioos:station:wmo:42045:1,2015-11-02T13:30:00Z,26.2168,-96.4998,4.0,2.6276225,274.3652475,4.02,'11111222,11111222,11111222' 
TABS,ioos:station:wmo:42045:1,2015-11-02T14:00:00Z,26.2168,-96.4998,4.0,2.684771871,266.5834198,3.97,'11111222,11111222,11111222' 
TABS,ioos:station:wmo:42045:1,2015-11-02T14:30:00Z,26.2168,-96.4998,4.0,2.729432175,254.4871619,3.76,'11111222,11111222,11111222' 
TABS,ioos:station:wmo:42045:1,2015-11-02T15:00:00Z,26.2168,-96.4998,4.0,2.635943854,259.286902,3.46,'11111222,11111222,11111222' 
TABS,ioos:station:wmo:42045:1,2015-11-02T15:30:00Z,26.2168,-96.4998,4.0,2.401603631,243.0082356,3.38,'11111222,11111222,11111222' 
TABS,ioos:station:wmo:42045:1,2015-11-02T16:00:00Z,26.2168,-96.4998,4.0,2.609846739,240.881494,3.78,'11111222,11111222,11111222' 
TABS,ioos:station:wmo:42045:1,2015-11-02T16:30:00Z,26.2168,-96.4998,4.0,3.156960564,247.6594043,3.88,'11111222,11111222,11111222' 
TABS,ioos:station:wmo:42045:1,2015-11-02T17:00:00Z,26.2168,-96.4998,4.0,2.75436018,251.3677507,3.53,'11111222,11111222,11111222' 
TABS,ioos:station:wmo:42045:1,2015-11-02T17:30:00Z,26.2168,-96.4998,4.0,2.298956285,248.5688828,3.05,'11111222,11111222,11111222' 
TABS,ioos:station:wmo:42045:1,2015-11-02T18:00:00Z,26.2168,-96.4998,4.0,2.202271555,267.3974439,2.94,'11111222,11111222,11111222' 
TABS,ioos:station:wmo:42045:1,2015-11-02T18:30:00Z,26.2168,-96.4998,4.0,2.013578903,273.4165802,2.94,'11111222,11111222,11111222' 
TABS,ioos:station:wmo:42045:1,2015-11-02T19:00:00Z,26.2168,-96.4998,4.0,2.02,270.0,2.83,'11111222,11111222,11111222' 
TABS,ioos:station:wmo:42045:1,2015-11-02T19:30:00Z,26.2168,-96.4998,4.0,2.109526013,289.3797258,2.72,'11111222,11111222,11111222' 
TABS,ioos:station:wmo:42045:1,2015-11-02T20:00:00Z,26.2168,-96.4998,4.0,2.306729286,308.310595,2.95,'11111222,11111222,11111222' 
TABS,ioos:station:wmo:42045:1,2015-11-02T20:30:00Z,26.2168,-96.4998,4.0,2.277586442,335.3476965,3.04,'11111222,11111222,11111222' 
TABS,ioos:station:wmo:42045:1,2015-11-02T21:00:00Z,26.2168,-96.4998,4.0,2.027658748,335.8365214,2.5,'11111222,11111222,11111222' 
TABS,ioos:station:wmo:42045:1,2015-11-02T21:30:00Z,26.2168,-96.4998,4.0,2.090861067,1.644188961,2.58,'11111222,11111222,11111222' 
TABS,ioos:station:wmo:42045:1,2015-11-02T22:00:00Z,26.2168,-96.4998,4.0,2.128497122,5.121094076,2.87,'11111222,11111222,11111222' 
TABS,ioos:station:wmo:42045:1,2015-11-02T22:30:00Z,26.2168,-96.4998,4.0,1.71467198,35.26547473,2.52,'11111222,11111222,11111222' 
TABS,ioos:station:wmo:42045:1,2015-11-02T23:00:00Z,26.2168,-96.4998,4.0,1.760454487,21.31765197,2.52,'11111222,11111222,11111222' 
TABS,ioos:station:wmo:42045:1,2015-11-02T23:30:00Z,26.2168,-96.4998,4.0,1.278632082,33.1926485,1.81,'11111222,11111222,11111222' 
TABS,ioos:station:wmo:42045:1,2015-11-03T00:00:00Z,26.2168,-96.4998,4.0,1.303840481,69.34071733,2.24,'11111222,11111222,11111222' 
TABS,ioos:station:wmo:42045:1,2015-11-03T00:30:00Z,26.2168,-96.4998,4.0,1.910183237,107.6764883,2.46,'11111222,11111222,11111222' 
TABS,ioos:station:wmo:42045:1,2015-11-03T01:00:00Z,26.2168,-96.4998,4.0,2.530316186,119.6048024,3.39,'11111222,11111222,11111222' 
TABS,ioos:station:wmo:42045:1,2015-11-03T01:30:00Z,26.2168,-96.4998,4.0,2.940544167,122.5014255,4.08,'11111222,11111222,11111222' 
TABS,ioos:station:wmo:42045:1,2015-11-03T02:00:00Z,26.2168,-96.4998,4.0,2.707489612,111.4481071,3.94,'11111222,11111222,11111222' 
TABS,ioos:station:wmo:42045:1,2015-11-03T02:30:00Z,26.2168,-96.4998,4.0,2.568890811,106.7423522,3.75,'11111222,11111222,11111222' 
TABS,ioos:station:wmo:42045:1,2015-11-03T03:00:00Z,26.2168,-96.4998,4.0,2.881058833,101.8173548,3.78,'11111222,11111222,11111222' 
TABS,ioos:station:wmo:42045:1,2015-11-03T03:30:00Z,26.2168,-96.4998,4.0,3.41063044,110.2418261,4.42,'11111222,11111222,11111222' 
TABS,ioos:station:wmo:42045:1,2015-11-03T04:00:00Z,26.2168,-96.4998,4.0,3.794443306,125.9944051,4.67,'11111222,11111222,11111222' 
TABS,ioos:station:wmo:42045:1,2015-11-03T04:30:00Z,26.2168,-96.4998,4.0,3.564056677,124.1362812,4.55,'11111222,11111222,11111222' 
TABS,ioos:station:wmo:42045:1,2015-11-03T05:00:00Z,26.2168,-96.4998,4.0,3.828328617,129.5951132,4.99,'11111222,11111222,11111222' 
TABS,ioos:station:wmo:42045:1,2015-11-03T05:30:00Z,26.2168,-96.4998,4.0,3.403086834,141.6823166,4.39,'11111222,11111222,11111222' 
TABS,ioos:station:wmo:42045:1,2015-11-03T06:00:00Z,26.2168,-96.4998,4.0,3.428308621,143.8991976,4.71,'11111222,11111222,11111222' 
TABS,ioos:station:wmo:42045:1,2015-11-03T06:30:00Z,26.2168,-96.4998,4.0,3.387107911,134.641475,4.43,'11111222,11111222,11111222' 
TABS,ioos:station:wmo:42045:1,2015-11-03T07:00:00Z,26.2168,-96.4998,4.0,3.368827689,129.2179369,4.37,'11111222,11111222,11111222' 
TABS,ioos:station:wmo:42045:1,2015-11-03T07:30:00Z,26.2168,-96.4998,4.0,3.264552037,138.1044143,4.25,'11111222,11111222,11111222' 
TABS,ioos:station:wmo:42045:1,2015-11-03T08:00:00Z,26.2168,-96.4998,4.0,3.627450896,138.5766417,4.34,'11111222,11111222,11111222' 
TABS,ioos:station:wmo:42045:1,2015-11-03T08:30:00Z,26.2168,-96.4998,4.0,3.733550589,134.7832878,5.13,'11111222,11111222,11111222' 
TABS,ioos:station:wmo:42045:1,2015-11-03T09:00:00Z,26.2168,-96.4998,4.0,3.743541104,132.727013,4.93,'11111222,11111222,11111222' 
TABS,ioos:station:wmo:42045:1,2015-11-03T09:30:00Z,26.2168,-96.4998,4.0,3.715279263,132.709711,5.26,'11111222,11111222,11111222' 
TABS,ioos:station:wmo:42045:1,2015-11-03T10:00:00Z,26.2168,-96.4998,4.0,3.889190147,134.5836274,5.02,'11111222,11111222,11111222' 
TABS,ioos:station:wmo:42045:1,2015-11-03T10:30:00Z,26.2168,-96.4998,4.0,4.048024209,141.3183878,5.58,'11111222,11111222,11111222' 
TABS,ioos:station:wmo:42045:1,2015-11-03T11:00:00Z,26.2168,-96.4998,4.0,4.384084853,134.8154917,5.6,'11111222,11111222,11111222' 
TABS,ioos:station:wmo:42045:1,2015-11-03T11:30:00Z,26.2168,-96.4998,4.0,4.216455858,143.9729213,5.39,'11111222,11111222,11111222' 
TABS,ioos:station:wmo:42045:1,2015-11-03T12:00:00Z,26.2168,-96.4998,4.0,4.532780604,130.4370966,5.6,'11111222,11111222,11111222' 
TABS,ioos:station:wmo:42045:1,2015-11-03T12:30:00Z,26.2168,-96.4998,4.0,4.279299008,129.1201669,5.5,'11111222,11111222,11111222' 
TABS,ioos:station:wmo:42045:1,2015-11-03T13:00:00Z,26.2168,-96.4998,4.0,4.592700731,140.0350015,5.74,'11111222,11111222,11111222' 
TABS,ioos:station:wmo:42045:1,2015-11-03T13:30:00Z,26.2168,-96.4998,4.0,3.883361946,140.1191695,5.13,'11111222,11111222,11111222' 
TABS,ioos:station:wmo:42045:1,2015-11-03T14:00:00Z,26.2168,-96.4998,4.0,4.435493208,140.8563156,5.59,'11111222,11111222,11111222' 
TABS,ioos:station:wmo:42045:1,2015-11-03T14:30:00Z,26.2168,-96.4998,4.0,3.995209632,134.6960939,5.35,'11111222,11111222,11111222' 
TABS,ioos:station:wmo:42045:1,2015-11-03T15:00:00Z,26.2168,-96.4998,4.0,4.579475953,139.0733166,6.25,'11111222,11111222,11111222' 
TABS,ioos:station:wmo:42045:1,2015-11-03T15:30:00Z,26.2168,-96.4998,4.0,4.254656273,137.7628547,5.36,'11111222,11111222,11111222' 
TABS,ioos:station:wmo:42045:1,2015-11-03T16:00:00Z,26.2168,-96.4998,4.0,4.710689971,136.3765229,5.81,'11111222,11111222,11111222' 
TABS,ioos:station:wmo:42045:1,2015-11-03T16:30:00Z,26.2168,-96.4998,4.0,4.919197089,140.0306902,5.88,'11111222,11111222,11111222' 
TABS,ioos:station:wmo:42045:1,2015-11-03T17:00:00Z,26.2168,-96.4998,4.0,5.383846209,138.4639845,6.81,'11111222,11111222,11111222' 
TABS,ioos:station:wmo:42045:1,2015-11-03T17:30:00Z,26.2168,-96.4998,4.0,5.633790908,139.7520022,6.93,'11111222,11111222,11111222' 
TABS,ioos:station:wmo:42045:1,2015-11-03T18:00:00Z,26.2168,-96.4998,4.0,5.48441428,138.6964491,6.75,'11111222,11111222,11111222' 
TABS,ioos:station:wmo:42045:1,2015-11-03T18:30:00Z,26.2168,-96.4998,4.0,4.90368229,145.8889378,6.26,'11111222,11111222,11111222' 
TABS,ioos:station:wmo:42045:1,2015-11-03T19:00:00Z,26.2168,-96.4998,4.0,5.15800349,143.1970477,6.73,'11111222,11111222,11111222' 
TABS,ioos:station:wmo:42045:1,2015-11-03T19:30:00Z,26.2168,-96.4998,4.0,5.05581843,135.0804494,6.5,'11111222,11111222,11111222' 
TABS,ioos:station:wmo:42045:1,2015-11-03T20:00:00Z,26.2168,-96.4998,4.0,4.845544345,136.5891306,5.72,'11111222,11111222,11111222' 
TABS,ioos:station:wmo:42045:1,2015-11-03T20:30:00Z,26.2168,-96.4998,4.0,4.629168392,128.1575583,5.41,'11111222,11111222,11111222' 
TABS,ioos:station:wmo:42045:1,2015-11-03T21:00:00Z,26.2168,-96.4998,4.0,4.755344362,131.1635809,5.79,'11111222,11111222,11111222' 
TABS,ioos:station:wmo:42045:1,2015-11-03T21:30:00Z,26.2168,-96.4998,4.0,5.131793059,118.2633016,6.57,'11111222,11111222,11111222' 
TABS,ioos:station:wmo:42045:1,2015-11-03T22:00:00Z,26.2168,-96.4998,4.0,5.358544579,123.2752311,6.45,'11111222,11111222,11111222' 
TABS,ioos:station:wmo:42045:1,2015-11-03T22:30:00Z,26.2168,-96.4998,4.0,5.111320769,121.8869081,6.72,'11111222,11111222,11111222' 
TABS,ioos:station:wmo:42045:1,2015-11-03T23:00:00Z,26.2168,-96.4998,4.0,4.995327817,118.9769735,6.07,'11111222,11111222,11111222' 
TABS,ioos:station:wmo:42045:1,2015-11-03T23:30:00Z,26.2168,-96.4998,4.0,5.4304788,119.2086742,6.86,'11111222,11111222,11111222' 
TABS,ioos:station:wmo:42045:1,2015-11-04T00:00:00Z,26.2168,-96.4998,4.0,5.231529413,122.7487315,6.11,'11111222,11111222,11111222' 
TABS,ioos:station:wmo:42045:1,2015-11-04T00:30:00Z,26.2168,-96.4998,4.0,5.611434754,120.9991268,6.92,'11111222,11111222,11111222' 
TABS,ioos:station:wmo:42045:1,2015-11-04T01:00:00Z,26.2168,-96.4998,4.0,6.098426026,125.2540517,7.18,'11111222,11111222,11111222' 
TABS,ioos:station:wmo:42045:1,2015-11-04T01:30:00Z,26.2168,-96.4998,4.0,5.781323378,124.9274075,7.06,'11111222,11111222,11111222' 
TABS,ioos:station:wmo:42045:1,2015-11-04T02:00:00Z,26.2168,-96.4998,4.0,5.700850814,122.463829,6.92,'11111222,11111222,11111222' 
TABS,ioos:station:wmo:42045:1,2015-11-04T02:30:00Z,26.2168,-96.4998,4.0,5.167068802,123.4751291,6.25,'11111222,11111222,11111222' 
TABS,ioos:station:wmo:42045:1,2015-11-04T03:00:00Z,26.2168,-96.4998,4.0,5.425025346,123.9540381,6.72,'11111222,11111222,11111222' 
TABS,ioos:station:wmo:42045:1,2015-11-04T03:30:00Z,26.2168,-96.4998,4.0,5.559361474,129.8190946,7.07,'11111222,11111222,11111222' 
TABS,ioos:station:wmo:42045:1,2015-11-04T04:00:00Z,26.2168,-96.4998,4.0,5.487312639,139.1385263,6.58,'11111222,11111222,11111222' 
TABS,ioos:station:wmo:42045:1,2015-11-04T04:30:00Z,26.2168,-96.4998,4.0,5.488943432,140.2481923,6.76,'11111222,11111222,11111222' 
TABS,ioos:station:wmo:42045:1,2015-11-04T05:00:00Z,26.2168,-96.4998,4.0,5.510762198,136.6914802,6.57,'11111222,11111222,11111222' 
TABS,ioos:station:wmo:42045:1,2015-11-04T05:30:00Z,26.2168,-96.4998,4.0,5.289234349,134.6939248,6.82,'11111222,11111222,11111222' 
TABS,ioos:station:wmo:42045:1,2015-11-04T06:00:00Z,26.2168,-96.4998,4.0,5.894751903,151.0872846,7.36,'11111222,11111222,11111222' 
TABS,ioos:station:wmo:42045:1,2015-11-04T06:30:00Z,26.2168,-96.4998,4.0,6.086657539,153.1405366,7.13,'11111222,11111222,11111222' 
TABS,ioos:station:wmo:42045:1,2015-11-04T07:00:00Z,26.2168,-96.4998,4.0,6.4598839,154.903002,8.09,'11111222,11111222,11111222' 
TABS,ioos:station:wmo:42045:1,2015-11-04T07:30:00Z,26.2168,-96.4998,4.0,5.371042729,153.3398083,6.68,'11111222,11111222,11111222' 
TABS,ioos:station:wmo:42045:1,2015-11-04T08:00:00Z,26.2168,-96.4998,4.0,5.755666773,153.2571469,7.05,'11111222,11111222,11111222' 
TABS,ioos:station:wmo:42045:1,2015-11-04T08:30:00Z,26.2168,-96.4998,4.0,5.817258805,150.4386464,7.06,'11111222,11111222,11111222' 
TABS,ioos:station:wmo:42045:1,2015-11-04T09:00:00Z,26.2168,-96.4998,4.0,5.238263071,152.1143774,6.25,'11111222,11111222,11111222' 
TABS,ioos:station:wmo:42045:1,2015-11-04T09:30:00Z,26.2168,-96.4998,4.0,5.906682656,144.8572853,6.87,'11111222,11111222,11111222' 
TABS,ioos:station:wmo:42045:1,2015-11-04T10:00:00Z,26.2168,-96.4998,4.0,5.759210015,138.4493865,6.87,'11111222,11111222,11111222' 
TABS,ioos:station:wmo:42045:1,2015-11-04T10:30:00Z,26.2168,-96.4998,4.0,6.499176871,135.9354173,7.91,'11111222,11111222,11111222' 
TABS,ioos:station:wmo:42045:1,2015-11-04T11:00:00Z,26.2168,-96.4998,4.0,6.293425141,138.8657678,7.72,'11111222,11111222,11111222' 
TABS,ioos:station:wmo:42045:1,2015-11-04T11:30:00Z,26.2168,-96.4998,4.0,6.619486385,135.9796331,7.98,'11111222,11111222,11111222' 
TABS,ioos:station:wmo:42045:1,2015-11-04T12:00:00Z,26.2168,-96.4998,4.0,7.303868838,138.4970597,8.66,'11111222,11111222,11111222' 
TABS,ioos:station:wmo:42045:1,2015-11-04T12:30:00Z,26.2168,-96.4998,4.0,7.000871374,134.305857,8.27,'11111222,11111222,11111222' 
TABS,ioos:station:wmo:42045:1,2015-11-04T13:00:00Z,26.2168,-96.4998,4.0,6.91551878,135.1174845,8.45,'11111222,11111222,11111222' 
TABS,ioos:station:wmo:42045:1,2015-11-04T13:30:00Z,26.2168,-96.4998,4.0,5.941927297,131.794018,7.18,'11111222,11111222,11111222' 
TABS,ioos:station:wmo:42045:1,2015-11-04T14:00:00Z,26.2168,-96.4998,4.0,5.977064497,129.2290342,7.24,'11111222,11111222,11111222' 
TABS,ioos:station:wmo:42045:1,2015-11-04T14:30:00Z,26.2168,-96.4998,4.0,6.062911842,133.1957989,7.54,'11111222,11111222,11111222' 
TABS,ioos:station:wmo:42045:1,2015-11-04T15:00:00Z,26.2168,-96.4998,4.0,6.159391204,135.7238732,7.32,'11111222,11111222,11111222' 
TABS,ioos:station:wmo:42045:1,2015-11-04T15:30:00Z,26.2168,-96.4998,4.0,5.524499977,133.4600869,6.73,'11111222,11111222,11111222' 
TABS,ioos:station:wmo:42045:1,2015-11-04T16:00:00Z,26.2168,-96.4998,4.0,5.28663409,132.6239483,6.78,'11111222,11111222,11111222' 
TABS,ioos:station:wmo:42045:1,2015-11-04T16:30:00Z,26.2168,-96.4998,4.0,5.596007505,133.1900572,6.76,'11111222,11111222,11111222' 
TABS,ioos:station:wmo:42045:1,2015-11-04T17:00:00Z,26.2168,-96.4998,4.0,5.628729874,134.5684471,7.0,'11111222,11111222,11111222' 
TABS,ioos:station:wmo:42045:1,2015-11-04T17:30:00Z,26.2168,-96.4998,4.0,5.429152788,137.6130372,6.59,'11111222,11111222,11111222' 
TABS,ioos:station:wmo:42045:1,2015-11-04T18:00:00Z,26.2168,-96.4998,4.0,5.153299914,139.0131061,6.1,'11111222,11111222,11111222' 
TABS,ioos:station:wmo:42045:1,2015-11-04T18:30:00Z,26.2168,-96.4998,4.0,5.038352905,139.8307244,5.95,'11111222,11111222,11111222' 